Weather History for Berlin, NH

Change the Weather History Date:

Monday, March 25, 2013

  Actual Average Record
Temperature  
Mean Temperature 24 °F -  
Max Temperature 42 °F 36 °F 52 °F (2003)
Min Temperature 6 °F 17 °F -18 °F (2014)
Degree Days  
Heating Degree Days 42    
Moisture  
Dew Point 15 °F    
Average Humidity 71    
Maximum Humidity 92    
Minimum Humidity 45    
Precipitation  
Precipitation 0.00 in - - ()
Sea Level Pressure  
Sea Level Pressure 29.72 in    
Wind  
Wind Speed 1 mph (East)    
Max Wind Speed 8 mph    
Max Gust Speed -    
Visibility 9 miles    
Events      
Averages and records for this station are not official NWS values.
T = Trace of Precipitation, MM = Missing Value Source: NWS Daily Summary

Daily Weather History Graph

Daily Weather History Graph

Search for Another Location

Airport:

Trip Planner

Search our weather history database for the weather conditions in past years. The results will help you decide how hot, cold, wet, or windy it might be!

Date:

Astronomy

Mar. 25, 2013 Rise Set
Actual Time 6:38 AM EDT 7:03 PM EDT
Civil Twilight 6:09 AM EDT 7:32 PM EDT
Nautical Twilight 5:34 AM EDT 8:07 PM EDT
Astronomical Twilight 4:59 AM EDT 8:43 PM EDT
Moon 5:29 PM EDT (3/25) 5:23 AM EDT (3/25)
Length of Visible Light 13h 23m
Length of Day
12h 25m
Waxing Gibbous, 96% of the Moon is Illuminated
Mar 25
Waxing Gibbous
Mar 27
Full
Apr 3
Last Quarter
Apr 10
New
Apr 18
First Quarter

Hourly Weather History & Observations

Time (EDT) Temp. Windchill Dew Point Humidity Pressure Visibility Wind Dir Wind Speed Gust Speed Precip Events Conditions
12:14 AM 17.6 °F - 12.2 °F 79% 29.76 in 9.0 mi Calm Calm - N/A   Scattered Clouds
12:52 AM 18.0 °F - 15.1 °F 88% 29.81 in 7.0 mi Calm Calm - N/A   Partly Cloudy
1:04 AM 17.6 °F - 12.2 °F 79% 29.76 in 10.0 mi Calm Calm - N/A   Mostly Cloudy
1:08 AM 17.6 °F - 12.2 °F 79% 29.76 in 1.5 mi Calm Calm - N/A   Haze
1:10 AM 17.6 °F - 14.0 °F 86% 29.76 in 0.8 mi Calm Calm - N/A   Mostly Cloudy
1:20 AM 15.8 °F - 12.2 °F 86% 29.76 in 1.5 mi Calm Calm - N/A   Mostly Cloudy
1:22 AM 17.6 °F - 12.2 °F 79% 29.76 in 4.0 mi Calm Calm - N/A   Scattered Clouds
1:52 AM 17.1 °F - 12.9 °F 84% 29.82 in 10.0 mi Calm Calm - N/A   Clear
2:34 AM 17.6 °F - 12.2 °F 79% 29.76 in 10.0 mi Calm Calm - N/A   Mostly Cloudy
2:52 AM 17.1 °F - 12.9 °F 84% 29.81 in 10.0 mi Calm Calm - N/A   Mostly Cloudy
3:06 AM 12.2 °F - 10.4 °F 92% 29.76 in 10.0 mi Calm Calm - N/A   Scattered Clouds
3:52 AM 12.9 °F - 8.1 °F 81% 29.81 in 10.0 mi Calm Calm - N/A   Clear
4:52 AM 10.0 °F - 5.0 °F 80% 29.80 in 10.0 mi Calm Calm - N/A   Clear
5:52 AM 8.1 °F - 3.9 °F 83% 29.80 in 10.0 mi Calm Calm - N/A   Clear
6:17 AM 8.6 °F - 3.2 °F 79% 29.74 in 10.0 mi Calm Calm - N/A   Scattered Clouds
6:26 AM 6.8 °F - 1.4 °F 79% 29.73 in 10.0 mi Calm Calm - N/A   Mostly Cloudy
6:52 AM 9.0 °F - 3.9 °F 80% 29.80 in 10.0 mi Calm Calm - N/A   Overcast
7:16 AM 10.4 °F - 6.8 °F 85% 29.74 in 10.0 mi Calm Calm - N/A   Overcast
7:52 AM 15.1 °F - 10.9 °F 84% 29.79 in 10.0 mi Calm Calm - N/A   Overcast
8:52 AM 19.0 °F - 17.1 °F 92% 29.78 in 9.0 mi Calm Calm - N/A   Overcast
9:52 AM 27.0 °F - 21.0 °F 78% 29.77 in 10.0 mi Calm Calm - N/A   Overcast
10:52 AM 32.0 °F 28.7 °F 24.1 °F 73% 29.75 in 10.0 mi South 3.5 mph - N/A   Mostly Cloudy
11:52 AM 37.0 °F 34.5 °F 24.1 °F 59% 29.71 in 10.0 mi SSW 3.5 mph - N/A   Overcast
12:52 PM 41.0 °F 38.0 °F 21.0 °F 45% 29.69 in 10.0 mi ENE 4.6 mph - N/A   Overcast
1:52 PM 41.0 °F 36.4 °F 21.0 °F 45% 29.66 in 10.0 mi Variable 6.9 mph - N/A   Overcast
2:52 PM 41.0 °F 35.8 °F 21.0 °F 45% 29.64 in 10.0 mi ESE 8.1 mph - N/A   Overcast
3:52 PM 41.0 °F 36.4 °F 21.9 °F 47% 29.63 in 10.0 mi NNE 6.9 mph - N/A   Overcast
4:52 PM 39.9 °F 35.8 °F 23.0 °F 51% 29.62 in 10.0 mi SSE 5.8 mph - N/A   Overcast
5:52 PM 41.0 °F 37.1 °F 21.0 °F 45% 29.60 in 10.0 mi East 5.8 mph - N/A   Overcast
6:52 PM 39.9 °F 36.7 °F 21.0 °F 47% 29.62 in 10.0 mi ENE 4.6 mph - N/A   Overcast
7:52 PM 39.0 °F 36.8 °F 21.9 °F 50% 29.62 in 10.0 mi ENE 3.5 mph - N/A   Overcast
8:52 PM 36.0 °F - 24.1 °F 62% 29.64 in 10.0 mi Calm Calm - N/A   Overcast
9:52 PM 37.0 °F 31.6 °F 23.0 °F 57% 29.64 in 10.0 mi Variable 6.9 mph - N/A   Overcast
10:52 PM 35.1 °F 29.3 °F 23.0 °F 61% 29.64 in 10.0 mi NNE 6.9 mph - N/A   Overcast
11:52 PM 34.0 °F 31.0 °F 21.9 °F 61% 29.62 in 10.0 mi NNE 3.5 mph - N/A   Overcast